View from above orbital plane
|
View from above satellite
|
Ground track
|
The orbit data is extracted from the following two-line orbital elements,
1 10967U 78064A 21018.66267772 -.00000053 00000-0 24549-4 0 9990
2 10967 107.9988 160.6796 0001259 280.0652 80.0350 14.43856101235887
Epoch (UTC): | 18 January 2021 15:54:15 |
Eccentricity: | 0.0001259 |
inclination: | 107.9988° |
perigee height: | 745 km |
apogee height: | 746 km |
right ascension of ascending node: | 160.6796° |
argument of perigee: | 280.0652° |
revolutions per day: | 14.43856101 |
mean anomaly at epoch: | 80.0350° |
orbit number at epoch: | 23588 |
The dashed part of the orbit path shows where the satellite is in the earth's shadow,
|
|